[[{"header":{"parameterUnit":"m.s-1","parameterCategory":1,"la1":30.2991,"la2":30.254,"lo1":-89.0895,"lo2":-89.0444,"dy":0.0017,"dx":0.0017,"nx":28,"ny":28,"refTime":"2024-09-28T03:00:00:Z","depth":0,"parameterNumber":2,"parameterNumberName":"U-component_of_WINDS"},"data":[0,0,0,0,0,0,0,0,0,0,0,0,0,0,0,0,0,0,0,0,0,0,0,0,0,0,0,0,0,0,0,0,0,0,0,0,0,0,0,0,0,0,0,0,0,0,0,0,0,0,0,0,0,0,0,0,0,0,5.9337,5.934,0,5.9618,5.9621,5.9624,5.9573,5.9568,5.9563,5.9558,5.9852,5.9864,5.9877,0,0,0,0,0,0,0,0,0,0,0,0,0,5.876,5.8771,5.9337,5.9341,5.9344,5.9618,5.9621,5.9625,5.9574,5.9568,5.9562,5.9556,5.9848,5.9863,5.9878,0,0,0,0,0,0,0,0,0,0,0,0,0,5.9023,5.8775,5.9337,5.9351,5.9355,5.9617,5.9622,5.9626,5.9575,5.9568,5.956,5.9553,5.9843,5.9861,5.988,6.0146,0,0,5.9937,5.9945,0,0,0,0,0,0,0,0,5.9008,5.9044,5.9346,5.9351,5.9356,5.9553,5.9526,5.9801,5.9577,5.9492,5.9558,5.955,5.9759,5.9784,5.9853,6.016,6.0172,5.9939,5.995,5.9958,5.9963,0,0,0,0,0,0,0,5.899,5.9032,5.9448,5.935,5.9356,5.9345,5.9374,5.9578,5.9665,5.9499,5.9496,5.9529,5.976,5.9836,5.986,6.0176,5.9938,5.9955,5.9966,5.9974,6.0713,6.0721,0,0,0,0,0,0,5.8967,5.9017,5.9439,5.9457,5.916,5.9362,5.9394,5.9497,5.9662,5.968,5.9536,5.9526,5.9807,5.9838,5.987,6.0191,5.9958,5.9975,5.9986,6.0704,6.0714,6.0724,0,0,0,0,0,0,5.8954,5.9005,5.9428,5.9236,5.9289,5.938,5.9496,5.9507,5.9582,5.969,5.9705,5.9596,5.9803,5.9844,6.0077,6.02,5.9984,6.0001,6.0694,6.0707,6.0719,6.0835,0,0,0,0,0,0,5.8938,5.9001,5.9102,5.9239,5.93,5.9629,5.9504,5.9518,5.9614,5.9604,5.9751,5.9768,5.98,6.0049,6.0095,6.0222,6.0016,6.0684,6.07,6.0715,6.0821,6.085,6.0876,0,0,0,0,0,5.8918,5.9125,5.9107,5.9159,5.9428,5.9636,5.9671,5.9702,5.9624,5.9727,5.9795,5.9763,6.0179,6.0073,6.0125,6.026,6.0676,6.0696,6.0714,6.0809,6.0845,6.0875,0,0,0,0,0,0,5.9004,5.9144,5.9125,5.9383,5.9498,5.9627,5.9758,5.974,5.9881,5.9866,5.99,5.9934,6.017,6.0238,6.0117,6.0524,6.0417,6.0447,6.0471,6.0506,6.0533,6.0512,6.0031,0,0,0,0,0,5.9052,5.9208,5.9323,5.9539,5.9598,5.9668,5.976,5.9773,5.9895,5.9944,6.003,6.015,6.0307,6.0411,6.0562,6.083,6.0861,6.0948,6.0976,6.0997,6.1023,6.1169,6.1208,6.0786,6.0785,6.0785,0,0,5.9155,5.9251,5.9348,5.9559,5.9649,5.9811,5.971,5.9886,6.0006,5.9971,6.0195,6.0262,6.0399,6.065,6.0765,6.0714,6.1147,6.1022,6.1038,6.1052,6.1192,6.1232,6.1268,6.0798,6.0796,6.0794,0,0,5.9424,5.9513,5.9702,5.9794,5.9931,5.9976,6.0021,6.0153,6.0196,6.042,6.0397,6.0541,6.0813,6.091,6.0995,6.1298,6.1274,6.1347,6.149,6.1631,6.1665,6.1694,6.1802,6.184,6.1372,6.1373,6.1373,0,5.9535,5.9776,5.9802,5.998,6.0073,6.0046,6.0237,6.0326,6.0507,6.0572,6.0512,6.085,6.094,6.1213,6.1286,6.1356,6.1409,6.1331,6.1657,6.1688,6.1716,6.1818,6.1859,6.138,6.1379,6.1379,6.1378,0,5.9905,6.0073,6.021,6.0381,6.049,6.0674,6.0728,6.0836,6.0839,6.089,6.1119,6.1226,6.1397,6.1463,6.1469,6.1737,6.17,6.1649,6.1541,6.1763,6.186,6.19,6.1392,6.1389,6.1387,6.1385,0,0,6.0239,6.042,6.047,6.0546,6.0694,6.0825,6.1007,6.1172,6.1263,6.1388,6.1542,6.177,6.1723,6.1819,6.1836,6.196,6.2192,6.1893,6.1897,6.1944,6.2492,6.2529,6.2574,6.2176,6.2184,6.219,6.248,0,6.0522,6.0841,6.0869,6.1157,6.1311,6.1286,6.1445,6.1553,6.1606,6.1746,6.1804,6.1965,6.1891,6.1948,6.207,6.2138,6.2302,6.2117,6.232,6.2327,6.2286,6.2625,6.2666,6.2934,6.2518,6.2524,6.2529,0,6.0895,6.1027,6.133,6.1453,6.152,6.1662,6.1813,6.1947,6.2069,6.2099,6.2205,6.2204,6.2393,6.2277,6.2537,6.241,6.2495,6.2541,6.2552,6.2572,6.2441,6.2654,6.3021,6.3061,6.2589,6.2585,6.258,0,6.1106,6.1361,6.1574,6.1641,6.1791,6.1891,6.1958,6.2073,6.2169,6.2303,6.2366,6.252,6.2605,6.2725,6.2766,6.2679,6.3024,6.2912,6.3054,6.3053,6.3128,6.3123,6.3514,6.3184,6.3183,6.3182,6.3181,0,6.1419,6.1605,6.167,6.1802,6.2009,6.2038,6.2243,6.2306,6.2407,6.2551,6.254,6.2675,6.2721,6.2864,6.2898,6.3107,6.3146,6.3175,6.3182,6.3176,6.3172,6.3232,6.3214,6.3193,6.3191,6.3188,6.3187,0,6.1691,6.1742,6.1973,6.2095,6.2129,6.2277,6.2382,6.2509,6.2557,6.2739,6.2783,6.2861,6.3029,6.3081,6.3285,6.3307,6.3551,6.3542,6.3509,6.351,6.3648,6.3634,6.4091,6.4151,6.3782,6.3785,6.3788,0,6.1887,6.2029,6.2165,6.2258,6.2329,6.2481,6.2578,6.2613,6.2715,6.2863,6.2972,6.3137,6.3271,6.354,6.3616,6.377,6.3764,6.3913,6.3788,6.3776,6.3765,6.3756,6.377,6.3937,6.3941,6.3944,6.3947,0,6.2229,6.2247,6.2386,6.2535,6.265,6.277,6.2885,6.2963,6.3013,6.3129,6.3298,6.3402,6.3607,6.3771,6.3928,6.3999,6.3982,6.3985,6.4026,6.4022,6.3996,6.4011,6.3573,6.3975,6.3972,6.397,6.3969,6.3968,6.2469,6.2593,6.2707,6.2862,6.2951,6.3058,6.3182,6.3245,6.3387,6.3555,6.3567,6.375,6.3867,6.4075,6.4153,6.4298,6.4255,6.4315,6.433,6.4344,6.4354,6.3973,6.4327,6.4326,6.4325,6.4325,6.4324,0,6.281,6.2881,6.3023,6.3182,6.3305,6.3275,6.34,6.3504,6.3665,6.3774,6.3905,6.4099,6.4257,6.4344,6.4502,6.4601,6.4597,6.4641,6.4634,6.465,6.4384,6.4332,6.4641,6.4641,6.4641,6.4641,6.4641,6.4641,6.3001,6.3209,6.3239,6.3491,6.3561,6.3738,6.3812,6.391,6.3997,6.4213,6.4343,6.4398,6.4498,6.4663,6.4807,6.4828,6.4887,6.4936,6.4952,6.4702,6.4669,6.4638,6.459,6.4948,6.4949,6.5207,6.5209,6.5211]},{"header":{"parameterUnit":"m.s-1","parameterCategory":1,"la1":30.2991,"la2":30.254,"lo1":-89.0895,"lo2":-89.0444,"dy":0.0017,"dx":0.0017,"nx":28,"ny":28,"refTime":"2024-09-28T03:00:00:Z","depth":0,"parameterNumber":3,"parameterNumberName":"V-component_of_WINDS"},"data":[0,0,0,0,0,0,0,0,0,0,0,0,0,0,0,0,0,0,0,0,0,0,0,0,0,0,0,0,0,0,0,0,0,0,0,0,0,0,0,0,0,0,0,0,0,0,0,0,0,0,0,0,0,0,0,0,0,0,0.682,0.6819,0,0.6777,0.6776,0.6776,0.6746,0.6746,0.6746,0.6746,0.6701,0.67,0.6699,0,0,0,0,0,0,0,0,0,0,0,0,0,0.6874,0.6873,0.682,0.6819,0.6819,0.6777,0.6776,0.6776,0.6746,0.6746,0.6746,0.6746,0.6701,0.67,0.6699,0,0,0,0,0,0,0,0,0,0,0,0,0,0.6843,0.6873,0.682,0.6799,0.6797,0.6777,0.6776,0.6775,0.6746,0.6746,0.6746,0.6745,0.6702,0.67,0.6699,0.6696,0,0,0.6694,0.6694,0,0,0,0,0,0,0,0,0.6844,0.6841,0.6803,0.68,0.6798,0.6767,0.6779,0.6749,0.6746,0.6765,0.6746,0.6745,0.6723,0.672,0.6712,0.6694,0.6692,0.6694,0.6693,0.6693,0.6692,0,0,0,0,0,0,0,0.6847,0.6842,0.6803,0.6802,0.6799,0.6791,0.6786,0.6773,0.6747,0.6764,0.6762,0.6757,0.6722,0.6714,0.6711,0.6692,0.6694,0.6693,0.6692,0.6691,0.6666,0.6667,0,0,0,0,0,0,0.6852,0.6844,0.6804,0.6801,0.6821,0.679,0.6785,0.6777,0.6747,0.6742,0.6757,0.6756,0.6717,0.6713,0.671,0.6703,0.6693,0.6691,0.669,0.6666,0.6666,0.6667,0,0,0,0,0,0,0.6854,0.6849,0.6806,0.6822,0.6816,0.679,0.6781,0.6776,0.6768,0.6742,0.6737,0.6754,0.6716,0.6712,0.6699,0.6701,0.6691,0.6689,0.6666,0.6666,0.6667,0.6691,0,0,0,0,0,0,0.6855,0.685,0.6849,0.6822,0.6815,0.6797,0.6781,0.6776,0.6766,0.6764,0.6738,0.6733,0.6716,0.6702,0.6698,0.6699,0.6688,0.6666,0.6666,0.6666,0.669,0.6693,0.6695,0,0,0,0,0,0.6857,0.6858,0.6849,0.6845,0.6814,0.6797,0.6793,0.6773,0.6766,0.6765,0.6747,0.6734,0.6701,0.6701,0.6696,0.6697,0.6665,0.6666,0.6666,0.6689,0.6692,0.6694,0,0,0,0,0,0,0.6886,0.6854,0.6844,0.6837,0.682,0.6793,0.6791,0.6777,0.6762,0.6761,0.6736,0.673,0.672,0.6707,0.6707,0.6691,0.6682,0.6681,0.6701,0.6703,0.6705,0.6709,0.6687,0,0,0,0,0,0.6892,0.6881,0.6854,0.685,0.6842,0.6818,0.681,0.6795,0.6777,0.677,0.6751,0.6734,0.6719,0.671,0.6696,0.6688,0.6681,0.6686,0.6688,0.669,0.669,0.6683,0.6684,0.6668,0.6668,0.6668,0,0,0.6903,0.6884,0.6879,0.6855,0.684,0.6829,0.6812,0.6801,0.6792,0.6768,0.6755,0.6741,0.6719,0.6709,0.6703,0.6697,0.6692,0.669,0.6692,0.6691,0.6684,0.6685,0.6687,0.6669,0.6669,0.6669,0,0,0.6918,0.6903,0.6898,0.6883,0.6861,0.6844,0.6843,0.6816,0.6806,0.6792,0.6773,0.6762,0.6738,0.6723,0.6712,0.6718,0.6705,0.6714,0.6725,0.6719,0.672,0.6721,0.6722,0.6723,0.6714,0.6714,0.6714,0,0.6935,0.6918,0.6896,0.6886,0.6875,0.6852,0.6845,0.6832,0.6806,0.6798,0.6792,0.676,0.6744,0.6729,0.673,0.6723,0.6719,0.6717,0.6722,0.6722,0.6723,0.6724,0.6724,0.6715,0.6715,0.6715,0.6715,0,0.694,0.6928,0.6926,0.6901,0.6889,0.6881,0.6857,0.6848,0.6834,0.6818,0.6803,0.6782,0.6762,0.6757,0.6744,0.674,0.6736,0.6726,0.6716,0.6726,0.6726,0.6727,0.6717,0.6717,0.6716,0.6716,0,0,0.6974,0.6935,0.6935,0.6922,0.6895,0.6885,0.6874,0.6854,0.6847,0.6829,0.6819,0.6798,0.6787,0.6775,0.6759,0.6753,0.6758,0.6744,0.6743,0.6746,0.675,0.6758,0.6759,0.6748,0.6748,0.6748,0.6752,0,0.6984,0.6965,0.6944,0.6932,0.692,0.6896,0.6887,0.6868,0.6852,0.6838,0.682,0.6805,0.6793,0.6785,0.6778,0.6759,0.6758,0.6758,0.6738,0.6737,0.6744,0.6759,0.6768,0.6772,0.6752,0.6752,0.6752,0,0.6995,0.6978,0.6964,0.6936,0.693,0.6922,0.6901,0.6889,0.6866,0.6855,0.684,0.6822,0.6809,0.6799,0.6779,0.6779,0.6769,0.6758,0.6758,0.6755,0.6746,0.6757,0.6773,0.6774,0.6752,0.6752,0.6752,0,0.7021,0.6994,0.6982,0.6972,0.6939,0.6933,0.6919,0.6896,0.6885,0.6866,0.6858,0.6838,0.6827,0.6811,0.6788,0.6783,0.677,0.6759,0.6759,0.6759,0.6758,0.6758,0.6773,0.6751,0.6751,0.6751,0.6751,0,0.7035,0.7028,0.6993,0.6985,0.6975,0.695,0.6941,0.6924,0.6904,0.6892,0.6869,0.6859,0.6829,0.6814,0.6796,0.6781,0.6776,0.6766,0.6761,0.6768,0.6769,0.6761,0.676,0.6751,0.6751,0.6751,0.6751,0,0.7062,0.7039,0.7024,0.6993,0.6985,0.6979,0.6952,0.6943,0.6925,0.691,0.6905,0.6875,0.6856,0.6832,0.6805,0.6792,0.678,0.6772,0.6788,0.6785,0.6786,0.6786,0.6796,0.6795,0.6775,0.6775,0.6775,0,0.7073,0.7067,0.7035,0.7025,0.7011,0.6996,0.6984,0.6958,0.6946,0.6919,0.6913,0.6892,0.6874,0.6844,0.682,0.6799,0.6791,0.6796,0.6788,0.6794,0.679,0.6791,0.6789,0.6798,0.6798,0.6799,0.6799,0,0.7095,0.7083,0.7067,0.7046,0.7032,0.7014,0.6995,0.6988,0.6957,0.6945,0.6925,0.6911,0.6883,0.6862,0.6837,0.6821,0.6804,0.6801,0.68,0.6807,0.6816,0.681,0.6793,0.6802,0.6801,0.6801,0.6801,0.6801,0.7114,0.7107,0.7082,0.7064,0.7047,0.7029,0.7019,0.6998,0.6981,0.6957,0.6941,0.6922,0.6897,0.6862,0.6846,0.6829,0.6823,0.6822,0.6821,0.6821,0.6823,0.6818,0.6825,0.6825,0.6825,0.6824,0.6824,0,0.7134,0.7117,0.71,0.7074,0.7059,0.7044,0.7022,0.701,0.6993,0.6971,0.6954,0.693,0.6908,0.6882,0.6858,0.685,0.6842,0.6845,0.6845,0.6841,0.683,0.6834,0.6852,0.6852,0.6852,0.6852,0.6852,0.6852,0.7143,0.7129,0.7113,0.709,0.7072,0.7053,0.7041,0.7024,0.7006,0.698,0.6962,0.6945,0.692,0.6895,0.6874,0.6866,0.6859,0.6864,0.6854,0.6845,0.6842,0.684,0.6843,0.6863,0.6863,0.6866,0.6866,0.6866]}]]